OpenBCM V1.13 (Linux)

Packet Radio Mailbox

DB0FHN

[JN59NK Nuernberg]

 Login: GUEST





  
I0OJJ  > AMSAT    22.09.26 02:41l 325 Lines 15341 Bytes #999 (0) @ WW
BID : 7OD_IR0EQ
Read: OE5RCO GUEST DJ6UX
Subj: 2Line Orbital Elements
Path: DB0FHN<OE2XZR<OK1TOR<SR6DWH<SR1BSZ<EA2RCF<IR0EQ
Sent: 260922/0027z @:IR0EQ.ITA.EU [Rome] $:7OD_IR0EQ

>From i0ojj@rgate.ampr.org Tue Sep 22 02:27:41 2026
Received: from rgate.ampr.org by rgate.ampr.org (JNOS2.0q.1) with SMTP
	id AA9949 ; Tue, 22 Sep 2026 02:27:41 +0200
Received: by rgate.ampr.org with SMTP
	id AA9946 ; Tue, 22 Sep 2026 02:27:02 +0200
Message-Id: <9947@rgate.ampr.org>
>From: i0ojj@rgate.ampr.org

SB KEPS @ AMSAT  $ORB26265.1
2Line Orbital Elements 26265.AMSAT

QST de W1STR

AMSAT Orbital Elements for Amateur Satellites in TLE Format
>From Orbital Analysis Office
New England Sci-Tech STEM Education Center
Natick MA September 22, 2026
To all radio amateurs


These element sets describe the orbits of various satellites 
in use by the amateur radio community. For details see:
www.amsat.org/keplerian-elements-formats/

A daily update of element sets is available at:
www.amsat.org/tle/daily-bulletin.txt
or without bulletin text:
www.amsat.org/tle/dailytle.txt


AO-07
1 07530U 74089B   26264.28807289 -.00000037  00000-0  56963-4 0  9991
2 07530 101.9920 278.5390 0011988 309.0150  62.1343 12.53699625372568
UO-11
1 14781U 84021B   26264.59867159  .00000918  00000-0  98525-4 0  9997
2 14781  97.8183 229.1702 0006511 216.5120 143.5655 14.91004048271495
LO-19
1 20442U 90005G   26264.32235117  .00000045  00000-0  32872-4 0  9995
2 20442  98.8819 288.7617 0010485 285.5996  74.4030 14.34144915916176
AO-27
1 22825U 93061C   26264.14444221  .00000027  00000-0  27180-4 0  9991
2 22825  98.6788 331.4782 0008540 171.4513 188.6816 14.30962225720724
FO-29
1 24278U 96046B   26264.42427543  .00000003  00000-0  39492-4 0  9993
2 24278  98.5162 100.1013 0349409 206.5418 151.7455 13.53278433486181
GO-32
1 25397U 98043D   26264.22649603  .00000027  00000-0  32049-4 0  9993
2 25397  99.0160 259.4469 0000700 356.5801   3.5372 14.24443582465009
ISS
1 25544U 98067A   26264.49719541  .00007274  00000-0  13903-3 0  9999
2 25544  51.6310 183.4357 0004788 164.7753 195.3381 15.49212079586682
NO-44
1 26931U 01043C   26264.54492342  .00000037  00000-0  44626-4 0  9998
2 26931  67.0532 355.0403 0005854 273.0731  86.9701 14.31985313304243
SO-50
1 27607U 02058C   26264.17312219  .00000541  00000-0  81625-4 0  9999
2 27607  64.5524 191.9652 0071615 244.8202 114.5466 14.83221192278697
CO-55
1 27844U 03031E   26264.27513155  .00000165  00000-0  90365-4 0  9990
2 27844  98.6774 271.6428 0008385 266.4617  93.5603 14.24383809205357
RS-22
1 27939U 03042A   26264.64118179  .00000560  00000-0  94173-4 0  9995
2 27939  98.3484  91.7554 0010655 328.9762 118.5667 14.73607319229753
CO-65
1 32785U 08021C   26264.61012432  .00002882  00000-0  18033-3 0  9993
2 32785  97.8387 248.1465 0010345  65.6659 294.5648 15.10210453999747
CO-66
1 32791U 08021J   26263.55189160  .00013623  00000-0  39424-3 0  9997
2 32791  97.7575 266.2526 0002303  30.1974 329.9401 15.35729789  1909
RS-30
1 32953U 08025A   26264.59169586  .00000016  00000-0  44566-4 0  9992
2 32953  82.5014 295.4810 0020724 101.1284 259.2128 12.43183045831670
SRMSAT
1 37841U 11058D   26264.51834166  .00000345  00000-0  43525-4 0  9997
2 37841  19.9709 196.3858 0011823 183.1590 333.8602 14.11593613771444
ZACUBE-1
1 39417U 13066B   26264.43886393  .00003139  00000-0  24155-3 0  9990
2 39417  97.8159 227.2845 0038825 290.7224  68.9840 15.01854235695174
Delfi-N3xt
1 39428U 13066N   26264.51931825  .00003805  00000-0  32670-3 0  9993
2 39428  97.8286 184.7873 0071196 245.4384 113.9406 14.96138335689022
GOMX-1
1 39430U 13066Q   26264.59809242  .00001258  00000-0  19319-3 0  9996
2 39430  97.6438  98.9848 0128990 127.1399 234.1673 14.69713241684074
LO-74
1 39440U 13066AA  26264.57152017  .00001996  00000-0  18533-3 0  9992
2 39440  97.8991 214.0370 0058493  68.1271 292.6155 14.94300999691381
AO-73
1 39444U 13066AE  26264.20450628  .00004785  00000-0  28963-3 0  9992
2 39444  97.8392 237.7962 0033780 235.1218 124.6834 15.10653388694156
DTUSAT-2
1 40030U 14033W   26263.97144515  .00004352  00000-0  22999-3 0  9991
2 40030  98.0927 267.8912 0006049 267.8920  92.1618 15.16076549667192
LILACSAT-2
1 40908U 15049K   26264.60165947  .00013783  00000-0  21100-3 0  9997
2 40908  97.4557 305.2690 0004644 251.8008 108.2740 15.54472924610717
Lapan A3
1 41603U 16040E   26264.64233049  .00002206  00000-0  70062-4 0  9995
2 41603  97.1574 257.6969 0011211  38.2130 321.9906 15.33630088569597
CAS-2T
1 41847U 16066G   26264.22680710  .00000831  00000-0  12550-3 0  9997
2 41847  98.3748 338.8543 0340888 197.9120 160.9816 14.44851980518660
TechnoSat
1 42829U 17042E   26264.37673077  .00002675  00000-0  18984-3 0  9992
2 42829  97.4408  58.4814 0018575 123.3767 236.9240 15.05432613501174
AO-91
1 43017U 17073E   26263.88554801  .00005833  00000-0  24855-3 0  9997
2 43017  97.4549 129.1458 0147072 358.5223   1.5554 15.13986341479869
S-Net D
1 43186U 18014G   26263.70625347  .00002972  00000-0  15191-3 0  9999
2 43186  97.5248 167.8931 0009516  54.7416 305.4706 15.17418514473244
S-Net B
1 43187U 18014H   26264.18126562  .00002837  00000-0  14528-3 0  9991
2 43187  97.5254 168.3543 0010061  48.8940 311.3161 15.17389628473312
S-Net A
1 43188U 18014J   26264.16620636  .00003190  00000-0  16270-3 0  9990
2 43188  97.5265 168.5671 0009923  49.6245 310.5853 15.17430114473317
S-Net C
1 43189U 18014K   26264.18572791  .00002823  00000-0  14458-3 0  9999
2 43189  97.5281 168.6758 0011104  42.1843 318.0243 15.17380180471860
Ten-Koh
1 43677U 18084G   26263.51851961  .00000756  00000-0  60689-4 0  9994
2 43677  98.0716  99.9156 0009838 151.9560 208.2196 15.03253812430481
PO-101
1 43678U 18084H   26264.65649949  .00001035  00000-0  86713-4 0  9999
2 43678  98.1174 105.1119 0012102 205.1991 154.8642 15.00742305430689
QO-100
1 43700U 18090A   26264.56551103  .00000140  00000-0  00000-0 0  9993
2 43700   0.0007 173.7376 0001178 353.8158  62.2585  1.00271473 28640
MinXSS-2
1 43758U 18099A   26264.59061150  .00034917  00000-0  54442-3 0  9997
2 43758  97.4445 344.1343 0005553 261.8068  98.2555 15.53765286429066
AO-95
1 43770U 18099N   26264.43169419  .00007398  00000-0  26902-3 0  9994
2 43770  97.4285 324.3943 0008342  18.4903 341.6638 15.28520623427916
SNUSat 2
1 43782U 18099AA  26261.13610748  .00004914  00000-0  21133-3 0  9999
2 43782  97.3962 313.1241 0009052 338.1889  21.8961 15.23071167427174
SnugLite
1 43784U 18099AC  26264.40245248  .00006958  00000-0  25005-3 0  9995
2 43784  97.3772 317.8070 0001523 341.0753  19.0431 15.28958962428011
ITASat 1
1 43786U 18099AE  26263.89849579  .00004104  00000-0  19293-3 0  9999
2 43786  97.3935 313.5167 0012680  25.4875 334.6983 15.20074721427446
EAGLET 1
1 43790U 18099AJ  26264.13202192  .00002296  00000-0  13154-3 0  9996
2 43790  97.4137 311.2471 0011427  22.4366 337.7364 15.13540923426843
ESEO
1 43792U 18099AL  26264.36088647  .00000858  00000-0  65363-4 0  9992
2 43792  97.3909 297.6073 0012176  13.9078 346.2481 15.04483029426267
JO-97
1 43803U 18099AX  26264.43861899  .00011979  00000-0  33870-3 0  9994
2 43803  97.4034 327.7517 0003836 287.0401  73.0423 15.36472711428393
Suomi 100
1 43804U 18099AY  26264.57750797  .00008465  00000-0  29020-3 0  9992
2 43804  97.4089 324.6966 0007988 302.4260  57.6208 15.30406437428154
ISAT
1 43879U 18111D   26264.10570713  .00672402  21790-3  10920-2 0  9994
2 43879  97.5694 208.6053 0009963 143.3023 216.8941 16.03328286426293
UWE-4
1 43880U 18111E   26264.27204069  .00030221  00000-0  49985-3 0  9991
2 43880  97.5811 197.5096 0005520   5.2814 354.8496 15.52151926425653
Prox-1
1 44339U 19036A   26264.18639626  .00009675  00000-0  88905-3 0  9993
2 44339  23.9933 191.9468 0005497  72.9298 287.1804 14.92614573387824
Taurus 1
1 44530U 19059C   26264.66407610  .00002189  00000-0  35001-3 0  9992
2 44530  98.6501  75.6017 0008540  15.3359 344.8104 14.72931810372840
TO-108
1 44881U 19093C   26264.63418321  .00000981  00000-0  11637-3 0  9994
2 44881  97.7447 334.4759 0014716 125.5521 234.7070 14.86642430365746
RS-44
1 44909U 19096E   26264.00939365  .00000029  00000-0  81504-4 0  9999
2 44909  82.5167 276.0315 0216341 280.4022  77.2762 12.79749428314604
SALSAT
1 46495U 20068K   26264.32463802  .00005122  00000-0  17379-3 0  9992
2 46495  97.8892 273.3525 0008439 335.0533  25.0298 15.30990671330065
CSS (TIANHE-1)
1 48274U 21035A   26263.98635566  .00014007  00000-0  17119-3 0  9997
2 48274  41.4678 100.3250 0002512 293.9975  66.0601 15.60145341308125
TeikyoSat 4
1 49396U 21102B   26264.29627183  .00001167  00000-0  75963-4 0  9994
2 49396  97.3627 290.0357 0010992 329.3839  30.6748 15.09786721267224
Z-Sat
1 49399U 21102E   26264.59885946  .00002215  00000-0  10914-3 0  9992
2 49399  97.3267 297.0003 0014482 270.8160  89.1416 15.18885041268077
KOSEN 1
1 49402U 21102H   26263.59121350  .00004558  00000-0  16930-3 0  9994
2 49402  97.3103 303.9283 0012069 223.7642 136.2642 15.27989942268585
HO-113
1 50466U 21131B   26264.61413698  .00000168  00000-0  65449-4 0  9994
2 50466  98.4967 356.4778 0004518 154.1050 206.0366 14.41428946249001
SNUGLITE 2
1 52899U 22065F   26264.16703332  .00000575  00000-0  11769-3 0  9997
2 52899  98.2343  48.9136 0008678  84.3401 275.8791 14.64493121225041
UmKA 1 (RS40S)
1 57172U 23091G   26264.58627562  .00003881  00000-0  17409-3 0  9992
2 57172  97.4952 322.9213 0013584 137.9642 222.2639 15.21729565178662
CubeBel-2 (EU11S)
1 57175U 23091K   26264.57128827  .00008212  00000-0  27460-3 0  9995
2 57175  97.4953 328.7426 0010554 129.0684 231.1498 15.31207505179049
RS-38S
1 57189U 23091Z   26264.53935145  .00012339  00000-0  32342-3 0  9995
2 57189  97.5003 336.1039 0007989  88.7814 271.4346 15.38796559179495
SONATE-2
1 59112U 24043Q   26263.18449285  .00045310  00000-0  43676-3 0  9993
2 59112  97.5624  60.0165 0005401 207.1016 152.9962 15.66376204142728
